Regional Weather Roundup
Issued by NWS

Home | Current Version | Previous Version | Text Only | Print | Product List | Glossary On
Versions: 1 2 3 4 5 6 7 8 9 10 11 12 13 14 15 16 17 18 19 20 21 22 23 24 25 26 27 28 29 30 31 32 33 34 35 36 37 38 39 40 41 42 43 44 45 46 47 48 49 50
000
ASUS42 KFFC 230410
RWRGA
WEATHER ROUNDUP FOR GEORGIA
NATIONAL WEATHER SERVICE PEACHTREE CITY GA
1100 PM EST SUN JAN 22 2017

NOTE: "FAIR" INDICATES FEW OR NO CLOUDS BELOW 12,000 FEET WITH NO
SIGNIFICANT WEATHER AND/OR OBSTRUCTIONS TO VISIBILITY.

* = USE WITH CAUTION. THE STATIONS MARKED WITH AN ASTERISK MAY NOT
REPORT WEATHER SUCH AS PRECIPITATION, FOG, OR THUNDER AND ARE NOT
QUALITY CONTROLLED BY NWS.

THE REMARK "TC" DENOTES TEMPERATURE READING IN DEGREES CELSIUS.

GAZ001>058-230500-
NORTH GEORGIA

CITY           SKY/WX    TMP DP  RH WIND       PRES   REMARKS
ATLANTA        MOCLDY    50  46  86 SW16      29.26F
ATHENS         CLOUDY    53  49  86 SW8G23    29.28R
CHAMBLEE       CLOUDY    50  46  86 SW14      29.25F
PEACHTREE CITY MOCLDY    50  45  83 SW8       29.30S
ROME           RAIN      50  47  89 SW10G24   29.16R FOG
WEST ATLANTA   CLOUDY    51  45  79 SW9G18    29.25S
GAINESVILLE    CLOUDY    50  47  89 SW10      29.25F
CARTERSVILLE   CLOUDY    51  46  83 S9G20     29.21S


CITY           SKY/WX    TMP DP  RH WIND       PRES   REMARKS
DALTON*        RAIN      50  50 100 S15G22    29.16R
MARIETTA       LGT RAIN  50  48  91 SW9       29.24F FOG
KENNESAW*      MOCLDY    50  46  87 SW12G21   29.25S
CANTON*        LGT RAIN  50  45  81 S10       29.23S
$$

GAZ059>098-102>109-230500-
CENTRAL GEORGIA

CITY           SKY/WX    TMP DP  RH WIND       PRES   REMARKS
AUGUSTA-BUSH   PTCLDY    59  52  77 SW14G23   29.30R
AUGUSTA-DANIEL CLOUDY    59  52  77 SW9G20    29.30R
COLUMBUS       LGT RAIN  50  46  86 NW12G26   29.35S
MACON          CLEAR     53  47  79 SW8       29.34F
ROBINS AFB     CLEAR     54  48  80 SW5       29.34F


CITY           SKY/WX    TMP DP  RH WIND       PRES   REMARKS
LAGRANGE*      CLOUDY    52  52 100 SW8       29.33S
SYLVANIA*      CLEAR    N/A N/A N/A W7        29.37R
MILLEDGEVILLE* CLEAR     54  52  94 CALM      29.33S
$$

GAZ099>101-110>166-230500-
SOUTH GEORGIA

CITY           SKY/WX    TMP DP  RH WIND       PRES   REMARKS
SAVANNAH       PTCLDY    60  51  72 W17       29.39R
VALDOSTA       CLOUDY    59  50  72 S6        29.42F
ALMA           CLOUDY    58  50  75 SW7       29.41S
ST SIMONS      CLEAR     61  48  62 W10       29.42R
FT STEWART     CLEAR     58  50  74 SW7       29.38R
ALBANY         PTCLDY    52  49  89 S5        29.41S
HUNTER AFB     CLEAR     60  57  90 W16       29.37R
MOODY AFB      CLOUDY    59  49  69 SW8       29.41F
BRUNSWICK      CLEAR     61  52  72 SW13G18   29.43F


CITY           SKY/WX    TMP DP  RH WIND       PRES   REMARKS
BAINBRIDGE*    CLOUDY    59  48  67 SW12      29.42R
MOULTRIE*      CLOUDY    57  50  77 S5        29.43S
VIDALIA*       CLEAR     57  54  88 W9        29.40R
WAYCROSS*      CLOUDY    61  55  81 SW6       29.42F
DOUGLAS*       CLOUDY    57  48  72 SW6       29.43S
$$




USA.gov is the U.S. government's official web portal to all federal, state and local government web resources and services.